Location: Alexandria
(38.8050°N, 77.0470°W)
Time: 23:26:27
(UTC-05:00)

OTV 5 (USA 277) - Pass Details

Date: 15 November 2017
Orbit: 404 x 417 km, 43.0° (Epoch: 07 September)

Event Time Altitude Azimuth Distance (km) Brightness Sun altitude
Exits shadow 05:57:35 16° 301° (WNW) 1,160 ? -10.6°
Maximum altitude 05:59:58 44° 10° (N) 564 ? -10.2°
Drops below altitude 10° 06:03:09 10° 85° (E) 1,454 ? -9.6°
Sets 06:05:18 0° 92° (E) 2,313 ? -9.2°
